Valladolid Airport, Spain

5:12 PM CEST on September 21, 2017 (GMT +0200)
Villanubla

Weather History for LEVD - September, 2012

Change the Weather History Date:

Tuesday, September 4, 2012

  Actual Average Record
Temperature  
Mean Temperature 62 °F -  
Max Temperature 73 °F - - ()
Min Temperature 50 °F - - ()
Degree Days  
Heating Degree Days 4    
Growing Degree Days 12 (Base 50)    
Moisture  
Dew Point 47 °F    
Average Humidity 56    
Maximum Humidity 94    
Minimum Humidity 31    
Precipitation  
Precipitation 0.00 in - - ()
Sea Level Pressure  
Sea Level Pressure 30.15 in    
Wind  
Wind Speed 13 mph ()    
Max Wind Speed 22 mph    
Max Gust Speed 33 mph    
T = Trace of Precipitation, MM = Missing Value Source: Averaged Metar Reports

Daily Weather History Graph

Daily Weather History Graph

Search for Another Location

Airport or City:

Trip Planner

Search our weather history database for the weather conditions in past years. The results will help you decide how hot, cold, wet, or windy it might be!

Date:

Astronomy

Sep. 04, 2012 Rise Set
Actual Time 7:48 AM CEST 8:47 PM CEST
Civil Twilight 7:20 AM CEST 9:15 PM CEST
Nautical Twilight 6:46 AM CEST 9:49 PM CEST
Astronomical Twilight 6:11 AM CEST 10:24 PM CEST
Moon 10:27 PM CEST (9/4) 11:46 AM CEST (9/4)
Length of Visible Light 13h 55m
Length of Day
12h 58m
Waning Gibbous, 85% of the Moon is Illuminated
Sep 4
Waning Gibbous
Sep 8
Last Quarter
Sep 16
New
Sep 22
First Quarter
Sep 30
Full

Hourly Weather History & Observations

Time (CEST) Temp. Dew Point Humidity Pressure Visibility Wind Dir Wind Speed Gust Speed Precip Events Conditions
6:30 AM 51.8 °F 48.2 °F 88% 30.18 in - ENE 15.0 mph - N/A   Clear
7:00 AM 51.8 °F 48.2 °F 88% 30.18 in - ENE 12.7 mph - N/A   Clear
7:30 AM 51.8 °F 48.2 °F 88% 30.18 in - ENE 10.4 mph - N/A   Clear
8:00 AM 50.0 °F 48.2 °F 94% 30.18 in - ENE 5.8 mph - N/A   Clear
8:30 AM 51.8 °F 48.2 °F 88% 30.18 in - Variable 2.3 mph - N/A   Clear
9:00 AM 53.6 °F 50.0 °F 88% 30.21 in - ENE 10.4 mph - N/A   Clear
9:30 AM 55.4 °F 50.0 °F 82% 30.21 in - ENE 11.5 mph - N/A   Clear
10:00 AM 57.2 °F 50.0 °F 77% 30.21 in - East 15.0 mph - N/A   Clear
10:30 AM 59.0 °F 48.2 °F 67% 30.18 in - East 19.6 mph - N/A   Clear
11:00 AM 60.8 °F 48.2 °F 63% 30.21 in - East 19.6 mph - N/A   Clear
11:30 AM 62.6 °F 48.2 °F 59% 30.18 in - ENE 19.6 mph - N/A   Clear
12:00 PM 64.4 °F 48.2 °F 56% 30.18 in - ENE 21.9 mph 33.4 mph N/A   Clear
12:30 PM 66.2 °F 48.2 °F 52% 30.18 in - ENE 19.6 mph - N/A   Clear
1:00 PM 68.0 °F 46.4 °F 46% 30.18 in - East 16.1 mph 27.6 mph N/A   Clear
1:30 PM 68.0 °F 44.6 °F 43% 30.18 in - ENE 17.3 mph 28.8 mph N/A   Clear
2:00 PM 69.8 °F 42.8 °F 38% 30.18 in - ENE 17.3 mph - N/A   Clear
2:30 PM 71.6 °F 42.8 °F 35% 30.15 in - ENE 15.0 mph - N/A   Clear
3:00 PM 71.6 °F 41.0 °F 33% 30.15 in - ENE 16.1 mph - N/A   Clear
3:30 PM 73.4 °F 42.8 °F 33% 30.15 in - ENE 16.1 mph - N/A   Clear
4:00 PM 73.4 °F 41.0 °F 31% 30.12 in - ENE 15.0 mph - N/A   Clear
4:30 PM 73.4 °F 42.8 °F 33% 30.12 in - ENE 16.1 mph - N/A   Clear
5:00 PM 73.4 °F 44.6 °F 36% 30.12 in - ENE 16.1 mph - N/A   Clear
5:30 PM 73.4 °F 44.6 °F 36% 30.12 in - ENE 17.3 mph - N/A   Clear
6:00 PM 73.4 °F 44.6 °F 36% 30.09 in - ENE 18.4 mph - N/A   Clear
6:30 PM 73.4 °F 44.6 °F 36% 30.09 in - ENE 17.3 mph - N/A   Clear
7:00 PM 71.6 °F 46.4 °F 41% 30.09 in - ENE 17.3 mph - N/A   Clear
7:30 PM 69.8 °F 46.4 °F 43% 30.09 in - ENE 16.1 mph - N/A   Clear
8:00 PM 68.0 °F 46.4 °F 46% 30.09 in - ENE 16.1 mph - N/A   Clear
8:30 PM 66.2 °F 48.2 °F 52% 30.09 in - ENE 16.1 mph - N/A   Clear
9:00 PM 64.4 °F 48.2 °F 56% 30.09 in - ENE 16.1 mph - N/A   Clear
9:30 PM 62.6 °F 48.2 °F 59% 30.12 in - ENE 16.1 mph - N/A   Clear
10:00 PM 62.6 °F 48.2 °F 59% 30.12 in - ENE 16.1 mph - N/A   Clear
10:30 PM 60.8 °F 48.2 °F 63% 30.12 in - ENE 16.1 mph - N/A   Clear